Location: Recife
(8.0585°S, 34.8848°W)
Time: 11:01:34
(UTC-03:00)

SR - Pass Details

Date: 14 April 2026
Orbit: 568 x 852 km, 66.7° (Epoch: 12 May)

Event Time Altitude Azimuth Distance (km) Brightness Sun altitude
Rises 02:14:21 0° 295° (WNW) 3,395 - -46.9°
Reaches altitude 10° 02:20:01 10° 250° (WSW) 2,423 - -45.5°
Maximum altitude 02:20:20 10° 247° (WSW) 2,417 - -45.4°
Drops below altitude 10° 02:20:38 10° 244° (WSW) 2,417 - -45.4°
Sets 02:26:11 0° 198° (SSW) 3,278 - -44.0°
